Tracking 17152 objects as of 28-April-2015
HD Live streaming from Space Station

METEOSAT 3

Track METEOSAT 3 now!
METEOSAT 3 is classified as:


NORAD ID: 19215
Int'l Code: 1988-051A
Perigee: 36,743.7 km
Apogee: 36,760.5 km
Inclination: 15.8 °
Period: 1,485.3 minutes
Semi major axis: 43123 km
RCS: 4.1367 m2 (large)
Launch date: June 15, 1988
Source: European Space Agency (ESA)
Your satellite tracking list
Your tracking list is empty




NASA's NSSDC Master Catalog

Two Line Element Set (TLE):
1 19215U 88051A   15117.44400212 -.00000147  00000-0  00000+0 0  9994
2 19215 015.7577 016.8695 0001944 272.2405 038.9759 00.96947837 83956

Source of the keplerian elements: AFSPC

N2YO: 451